TimeCST,TemperatureF,Dew PointF,Humidity,Sea Level PressureIn,VisibilityMPH,Wind Direction,Wind SpeedMPH,Gust SpeedMPH,PrecipitationIn,Events,Conditions,WindDirDegrees,DateUTC
12:15 AM,36.9,34.5,91,30.31,0.2,Calm,Calm,-,N/A,Snow,Light Snow,0,2013-12-18 06:15:00
12:35 AM,37.0,35.1,93,30.31,0.2,Calm,Calm,-,N/A,Snow,Light Snow,0,2013-12-18 06:35:00
12:55 AM,34.7,32.5,92,30.31,0.2,Calm,Calm,-,N/A,Snow,Light Snow,0,2013-12-18 06:55:00
1:15 AM,34.9,32.7,92,30.31,0.2,Calm,Calm,-,N/A,Snow,Light Snow,0,2013-12-18 07:15:00
1:35 AM,34.7,32.7,92,30.30,0.2,Calm,Calm,-,N/A,Snow,Light Snow,0,2013-12-18 07:35:00
1:55 AM,34.7,32.7,92,30.30,5.0,Calm,Calm,-,N/A,,Scattered Clouds,0,2013-12-18 07:55:00
2:15 AM,34.2,32.2,92,30.30,0.5,Calm,Calm,-,N/A,Snow,Light Snow,0,2013-12-18 08:15:00
2:35 AM,34.2,32.2,92,30.30,0.5,Calm,Calm,-,N/A,Snow,Light Snow,0,2013-12-18 08:35:00
2:55 AM,33.8,32.0,93,30.30,0.5,Calm,Calm,-,N/A,Snow,Light Snow,0,2013-12-18 08:55:00
3:15 AM,34.5,32.5,92,30.30,0.5,Calm,Calm,-,N/A,Snow,Light Snow,0,2013-12-18 09:15:00
3:35 AM,33.8,32.0,93,30.30,1.8,Calm,Calm,-,N/A,,Mist,0,2013-12-18 09:35:00
3:55 AM,33.1,31.8,95,30.30,0.5,Calm,Calm,-,N/A,Snow,Light Snow,0,2013-12-18 09:55:00
4:15 AM,33.8,32.0,93,30.30,0.5,Calm,Calm,-,N/A,Snow,Light Snow,0,2013-12-18 10:15:00
4:35 AM,33.1,31.6,94,30.30,10.0,Calm,Calm,-,N/A,,Scattered Clouds,0,2013-12-18 10:35:00
4:55 AM,33.4,32.0,94,30.30,0.8,Calm,Calm,-,N/A,Snow,Light Snow,0,2013-12-18 10:55:00
5:48 AM,33.8,32.0,93,30.32,3.0,NNW,4.6,-,N/A,,Clear,330,2013-12-18 11:48:00
6:50 AM,35.6,32.0,87,30.34,4.0,North,3.5,-,N/A,,Clear,360,2013-12-18 12:50:00
7:50 AM,41.0,39.2,93,30.35,5.0,North,4.6,-,N/A,,Clear,360,2013-12-18 13:50:00
8:48 AM,51.8,44.6,76,30.37,5.0,North,3.5,-,N/A,,Clear,360,2013-12-18 14:48:00
9:51 AM,57.2,42.8,59,30.38,7.0,North,4.6,-,N/A,,Clear,10,2013-12-18 15:51:00
10:48 AM,62.6,35.6,37,30.37,7.0,ENE,4.6,-,N/A,,Clear,60,2013-12-18 16:48:00
11:50 AM,66.2,37.4,35,30.34,7.0,ENE,4.6,-,N/A,,Clear,60,2013-12-18 17:50:00
12:50 PM,68.0,35.6,30,30.30,7.0,East,4.6,-,N/A,,Clear,80,2013-12-18 18:50:00
1:50 PM,68.0,39.2,35,30.28,7.0,ENE,6.9,-,N/A,,Clear,60,2013-12-18 19:50:00
2:50 PM,68.0,37.4,33,30.27,7.0,East,5.8,-,N/A,,Clear,90,2013-12-18 20:50:00
3:50 PM,66.2,39.2,37,30.27,7.0,East,5.8,-,N/A,,Clear,80,2013-12-18 21:50:00
4:50 PM,60.8,42.8,52,30.27,7.0,East,3.5,-,N/A,,Clear,100,2013-12-18 22:50:00
6:15 PM,50.0,42.8,76,30.26,7.0,East,3.5,-,N/A,,Clear,80,2013-12-19 00:15:00
6:35 PM,46.6,41.4,82,30.26,7.0,Calm,Calm,-,N/A,,Clear,0,2013-12-19 00:35:00
6:50 PM,44.6,39.2,81,30.27,7.0,East,3.5,-,N/A,,Clear,90,2013-12-19 00:50:00
6:55 PM,44.4,39.9,84,30.26,10.0,Calm,Calm,-,N/A,,Clear,0,2013-12-19 00:55:00
7:15 PM,43.5,39.6,86,30.27,10.0,ENE,3.5,-,N/A,,Clear,70,2013-12-19 01:15:00
7:35 PM,43.3,40.1,88,30.27,10.0,East,3.5,-,N/A,,Clear,80,2013-12-19 01:35:00
7:55 PM,44.1,40.3,87,30.26,10.0,East,4.6,-,N/A,,Clear,90,2013-12-19 01:55:00
8:15 PM,42.6,39.2,88,30.26,10.0,East,3.5,-,N/A,,Clear,90,2013-12-19 02:15:00
8:35 PM,45.9,42.4,88,30.25,10.0,East,3.5,-,N/A,,Clear,90,2013-12-19 02:35:00
8:55 PM,45.3,41.7,87,30.25,10.0,East,3.5,-,N/A,,Clear,80,2013-12-19 02:55:00
9:15 PM,45.5,41.5,86,30.25,10.0,Calm,Calm,-,N/A,,Clear,0,2013-12-19 03:15:00
9:35 PM,45.5,41.7,87,30.25,10.0,ENE,3.5,-,N/A,,Clear,60,2013-12-19 03:35:00
9:55 PM,45.7,42.1,87,30.25,10.0,ENE,3.5,-,N/A,,Clear,60,2013-12-19 03:55:00
10:15 PM,46.0,42.6,88,30.24,10.0,ENE,4.6,-,N/A,,Clear,70,2013-12-19 04:15:00
10:35 PM,46.2,42.6,87,30.24,10.0,East,3.5,-,N/A,,Clear,80,2013-12-19 04:35:00
10:55 PM,45.3,42.4,90,30.23,10.0,ENE,3.5,-,N/A,,Clear,60,2013-12-19 04:55:00
11:15 PM,46.9,44.6,92,30.23,7.0,Calm,Calm,-,N/A,,Clear,0,2013-12-19 05:15:00
11:35 PM,46.4,44.2,92,30.23,7.0,Calm,Calm,-,N/A,,Clear,0,2013-12-19 05:35:00
11:55 PM,46.9,44.6,92,30.22,10.0,Calm,Calm,-,N/A,,Scattered Clouds,0,2013-12-19 05:55:00